Weather History for Sioux Falls, SD

Change the Weather History Date:

Friday, January 3, 2014

  Actual Average Record
Temperature  
Mean Temperature 18 °F 16 °F  
Max Temperature 36 °F 26 °F 47 °F (1962)
Min Temperature 0 °F 7 °F -27 °F (1919)
Degree Days  
Heating Degree Days 47 49  
Month to date heating degree days 189 147  
Since 1 July heating degree days 3457 3280  
Cooling Degree Days 0 0  
Month to date cooling degree days 0 0  
Year to date cooling degree days 0 0  
Moisture  
Dew Point 13 °F    
Average Humidity 80    
Maximum Humidity 88    
Minimum Humidity 72    
Precipitation  
Precipitation T in 0.02 in 0.78 in (1949)
Month to date precipitation 0.06 0.06  
Year to date precipitation 0.06 0.06  
Snow  
Snow T in 0.20 in 6.00 in (1897)
Month to date snowfall 0.6 0.7  
Since 1 July snowfall 21.1 17.6  
Snow Depth 4.00 in    
Sea Level Pressure  
Sea Level Pressure 29.78 in    
Wind  
Wind Speed 17 mph (South)    
Max Wind Speed 28 mph    
Max Gust Speed 35 mph    
Visibility 6 miles    
Events Rain , Snow    
T = Trace of Precipitation, MM = Missing Value Source: NWS Daily Summary

Daily Weather History Graph

Daily Weather History Graph

Search for Another Location

Airport:

Trip Planner

Search our weather history database for the weather conditions in past years. The results will help you decide how hot, cold, wet, or windy it might be!

Date:

Astronomy

Jan. 03, 2014 Rise Set
Actual Time 8:00 AM CST 5:03 PM CST
Civil Twilight 7:27 AM CST 5:35 PM CST
Nautical Twilight 6:51 AM CST 6:11 PM CST
Astronomical Twilight 6:17 AM CST 6:46 PM CST
Moon 9:21 AM CST (1/3) 8:19 PM CST (1/3)
Length of Visible Light 10h 07m
Length of Day
9h 02m
Waxing Crescent, 8% of the Moon is Illuminated
Jan 3
Waxing Crescent
Jan 7
First Quarter
Jan 15
Full
Jan 23
Last Quarter
Jan 30
New

Hourly Weather History & Observations

Time (CST) Temp. Windchill Dew Point Humidity Pressure Visibility Wind Dir Wind Speed Gust Speed Precip Events Conditions
12:56 AM 1.0 °F -18.0 °F -6.0 °F 72% 30.29 in 10.0 mi South 15.0 mph - N/A   Mostly Cloudy
1:31 AM 1.9 °F -18.7 °F -5.1 °F 72% 30.14 in 10.0 mi South 18.4 mph - N/A   Mostly Cloudy
1:56 AM 3.0 °F -14.8 °F -4.0 °F 73% 30.25 in 10.0 mi South 13.8 mph - N/A   Overcast
2:56 AM 5.0 °F -15.2 °F -0.9 °F 76% 30.20 in 10.0 mi South 19.6 mph - N/A   Overcast
3:29 AM 6.1 °F -12.2 °F 1.0 °F 80% 30.06 in 5.0 mi South 16.1 mph - N/A   Haze
3:56 AM 7.0 °F -12.1 °F 3.0 °F 84% 30.14 in 4.0 mi South 18.4 mph - N/A   Overcast
4:18 AM 7.0 °F -13.6 °F 3.0 °F 84% 30.00 in 2.5 mi South 21.9 mph - 0.00 in Snow Light Snow
4:45 AM 7.0 °F -12.6 °F 3.0 °F 84% 29.98 in 2.0 mi South 19.6 mph 27.6 mph 0.00 in Snow Light Snow
4:56 AM 7.0 °F -11.6 °F 3.0 °F 84% 30.09 in 2.0 mi South 17.3 mph 29.9 mph 0.00 in Snow Light Snow
5:56 AM 8.1 °F -11.2 °F 3.9 °F 83% 30.02 in 2.0 mi South 19.6 mph 28.8 mph 0.00 in Snow Light Snow
6:56 AM 9.0 °F -10.0 °F 5.0 °F 84% 29.99 in 2.0 mi South 19.6 mph 27.6 mph 0.00 in Snow Light Snow
7:04 AM 9.0 °F -10.5 °F 5.0 °F 84% 29.87 in 2.0 mi South 20.7 mph - 0.00 in Snow Light Snow
7:56 AM 9.0 °F -11.4 °F 6.1 °F 88% 29.94 in 2.5 mi South 23.0 mph 28.8 mph 0.00 in Snow Blowing Snow
8:35 AM 10.0 °F -9.1 °F 6.1 °F 84% 29.80 in 1.0 mi South 20.7 mph 28.8 mph N/A Snow Blowing Snow
8:56 AM 10.0 °F -9.1 °F 7.0 °F 87% 29.89 in 1.0 mi South 20.7 mph 28.8 mph N/A Snow Blowing Snow
9:56 AM 10.9 °F -7.9 °F 7.0 °F 84% 29.84 in 1.0 mi South 20.7 mph 27.6 mph N/A Snow Blowing Snow
10:29 AM 12.0 °F -6.9 °F 8.1 °F 84% 29.71 in 2.0 mi South 21.9 mph 28.8 mph N/A Snow Blowing Snow
10:56 AM 12.9 °F -5.7 °F 9.0 °F 84% 29.79 in 2.0 mi South 21.9 mph 33.4 mph N/A Snow Blowing Snow
11:23 AM 15.1 °F -4.7 °F 10.9 °F 84% 29.66 in 3.0 mi South 27.6 mph 34.5 mph N/A Snow Blowing Snow
11:56 AM 17.1 °F -1.4 °F 12.0 °F 81% 29.71 in 4.0 mi South 25.3 mph 31.1 mph N/A Snow Blowing Snow
12:56 PM 21.9 °F 6.2 °F 16.0 °F 78% 29.64 in 10.0 mi South 21.9 mph - N/A   Mostly Cloudy
1:56 PM 24.1 °F 8.7 °F 18.0 °F 77% 29.59 in 9.0 mi South 23.0 mph 29.9 mph N/A   Mostly Cloudy
2:56 PM 26.1 °F 13.1 °F 19.9 °F 78% 29.56 in 10.0 mi South 17.3 mph 29.9 mph N/A   Mostly Cloudy
3:56 PM 28.0 °F 14.9 °F 21.9 °F 78% 29.53 in 10.0 mi South 19.6 mph - N/A   Mostly Cloudy
4:56 PM 28.9 °F 16.5 °F 23.0 °F 78% 29.52 in 10.0 mi South 18.4 mph - N/A   Mostly Cloudy
5:56 PM 28.9 °F 18.6 °F 24.1 °F 82% 29.51 in 10.0 mi South 12.7 mph - N/A   Overcast
6:56 PM 30.0 °F 19.1 °F 25.0 °F 82% 29.51 in 10.0 mi South 15.0 mph - N/A   Overcast
7:56 PM 30.9 °F 20.7 °F 26.1 °F 82% 29.51 in 10.0 mi SSW 13.8 mph - N/A   Overcast
8:56 PM 32.0 °F 23.6 °F 27.0 °F 82% 29.51 in 10.0 mi SSW 10.4 mph - N/A   Overcast
9:56 PM 33.1 °F 26.9 °F 27.0 °F 78% 29.54 in 10.0 mi WSW 6.9 mph - 0.00 in Rain Light Rain
10:12 PM 33.1 °F 28.7 °F 28.0 °F 82% 29.47 in 10.0 mi WSW 4.6 mph - 0.00 in Rain Light Freezing Rain
10:56 PM 33.1 °F 27.7 °F 28.9 °F 85% 29.53 in 10.0 mi SW 5.8 mph - 0.00 in Rain Light Freezing Rain
11:01 PM 33.1 °F 27.7 °F 28.9 °F 85% 29.47 in 10.0 mi SW 5.8 mph - 0.00 in   Overcast
11:56 PM 36.0 °F 29.0 °F 30.9 °F 82% 29.55 in 10.0 mi West 9.2 mph - 0.00 in   Overcast